This demonstration page uses our WeatherBlox Daily Observations layout. Learn more.

Left ArrowRight Arrow

39.95238, -75.16362

Hourly Observations for June 30, 2022

Temp ( °F °C ) Dew Point ( °F °C ) Humidity (%) Winds ( mph kmh ) Pressure ( in mb ) Visibility ( mi km ) Precip ( " mm )
12:54 am 00:54 Clear 76 24.4 64 17.8 67 67 SW 7 11 30.20 1023 10 16 0.00 0.00
1:54 am 01:54 Clear 74 23.3 63 17.2 69 69 SSW 5 7 30.19 1023 10 16 0.00 0.00
2:54 am 02:54 Clear 73 22.8 63 17.2 71 71 SW 6 9 30.19 1023 10 16 0.00 0.00
3:54 am 03:54 Clear 72 22.2 64 17.8 76 76 SW 8 13 30.19 1022 10 16 0.00 0.00
4:54 am 04:54 Mostly Clear 71 21.7 64 17.8 79 79 SW 7 11 30.19 1023 10 16 0.00 0.00
5:54 am 05:54 Mostly Sunny 70 21.1 64 17.8 82 82 NNW 5 7 30.20 1023 10 16 0.00 0.00
6:54 am 06:54 Mostly Sunny 73 22.8 65 18.3 76 76 NW 3 6 30.22 1023 10 16 0.00 0.00
7:54 am 07:54 Partly Cloudy 75 23.9 64 17.8 69 69 Calm 30.22 1024 10 16 0.00 0.00
8:54 am 08:54 Partly Cloudy 77 25 64 17.8 64 64 S 3 6 30.22 1024 10 16 0.00 0.00
9:54 am 09:54 Partly Cloudy 83 28.3 63 17.2 51 51 SE 3 6 30.22 1024 10 16 0.00 0.00
10:54 am 10:54 Mostly Cloudy 85 29.4 62 16.7 46 46 SE 3 6 30.22 1023 10 16 0.00 0.00
11:54 am 11:54 Partly Cloudy 85 29.4 59 15 42 42 Calm 30.21 1023 10 16 0.00 0.00
12:54 pm 12:54 Partly Cloudy 88 31.1 55 12.8 33 33 W 7 11 30.20 1023 10 16 0.00 0.00
1:54 pm 13:54 Partly Cloudy 89 31.7 53 11.7 29 29 VRB 7 11 30.17 1022 10 16 0.00 0.00
2:54 pm 14:54 Mostly Sunny 89 31.7 55 12.8 31 31 SW 9 15 30.15 1021 10 16 0.00 0.00
3:54 pm 15:54 Mostly Sunny 89 31.7 55 12.8 31 31 SSW 10 17 30.13 1020 10 16 0.00 0.00
4:54 pm 16:54 Mostly Sunny 90 32.2 54 12.2 29 29 SSW 7 11 30.12 1020 10 16 0.00 0.00
5:54 pm 17:54 Mostly Sunny 90 32.2 54 12.2 29 29 SW 10 17 30.11 1020 10 16 0.00 0.00
6:54 pm 18:54 Sunny 90 32.2 53 11.7 28 28 SW 10 17 30.12 1020 10 16 0.00 0.00
7:54 pm 19:54 Sunny 87 30.6 54 12.2 32 32 SW 9 15 30.13 1020 10 16 0.00 0.00
8:54 pm 20:54 Clear 82 27.8 57 13.9 42 42 S 9 15 30.13 1020 10 16 0.00 0.00
9:54 pm 21:54 Clear 79 26.1 62 16.7 56 56 S 8 13 30.14 1021 10 16 0.00 0.00
10:54 pm 22:54 Clear 77 25 67 19.4 71 71 S 7 11 30.14 1021 10 16 0.00 0.00
11:54 pm 23:54 Clear 76 24.4 69 20.6 79 79 SSW 3 6 30.15 1021 10 16 0.00 0.00

Powered by AerisWeather